Weather History for KALX - January, 2014

Change the Weather History Date:

Wednesday, January 15, 2014

  Actual Average (KAUO) Record (KAUO)
Temperature  
Mean Temperature 44 °F -  
Max Temperature 52 °F - 75 °F (2013)
Min Temperature 35 °F - 14 °F (1964)
Degree Days  
Heating Degree Days 22    
Month to date heating degree days  
Since 1 July heating degree days  
Moisture  
Dew Point 20 °F    
Average Humidity 50    
Maximum Humidity 86    
Minimum Humidity 12    
Precipitation  
Precipitation 0.00 in - 2.26 in (1960)
Month to date precipitation  
Year to date precipitation  
Sea Level Pressure  
Sea Level Pressure 30.06 in    
Wind  
Wind Speed 4 mph (NW)    
Max Wind Speed 14 mph    
Max Gust Speed 24 mph    
Visibility 10 miles    
Events      
T = Trace of Precipitation, MM = Missing Value Source: NWS Daily Summary

Daily Weather History Graph

Daily Weather History Graph

Search for Another Location

Airport or City:

Trip Planner

Search our weather history database for the weather conditions in past years. The results will help you decide how hot, cold, wet, or windy it might be!

Date:

Astronomy

Jan. 15, 2014 Rise Set
Actual Time 6:46 AM CST 5:00 PM CST
Civil Twilight 6:19 AM CST 5:27 PM CST
Nautical Twilight 5:49 AM CST 5:57 PM CST
Astronomical Twilight 5:19 AM CST 6:27 PM CST
Moon 4:54 PM CST (1/15) 6:04 AM CST (1/15)
Length of Visible Light 11h 07m
Length of Day
10h 13m
Full, 100% of the Moon is Illuminated
Jan 15
Full
Jan 15
Full
Jan 23
Last Quarter
Jan 30
New
Feb 6
First Quarter

Hourly Weather History & Observations

Time (CST) Temp. Windchill Dew Point Humidity Pressure Visibility Wind Dir Wind Speed Gust Speed Precip Events Conditions
12:15 AM 37.6 °F - 32.9 °F 83% 30.01 in 10.0 mi Calm Calm - N/A   Clear
12:35 AM 35.1 °F - 30.9 °F 85% 30.01 in 10.0 mi Calm Calm - N/A   Clear
12:55 AM 35.1 °F - 31.1 °F 85% 30.00 in 10.0 mi Calm Calm - N/A   Clear
1:15 AM 37.6 °F - 32.9 °F 83% 30.00 in 10.0 mi Calm Calm - N/A   Clear
1:35 AM 37.0 °F - 32.7 °F 84% 30.01 in 10.0 mi Calm Calm - N/A   Clear
1:55 AM 37.6 °F - 33.3 °F 84% 30.01 in 10.0 mi Calm Calm - N/A   Clear
2:15 AM 35.1 °F - 31.1 °F 85% 30.01 in 10.0 mi Calm Calm - N/A   Clear
2:35 AM 35.1 °F - 30.9 °F 85% 30.01 in 10.0 mi Calm Calm - N/A   Clear
2:55 AM 35.1 °F - 31.1 °F 85% 30.01 in 10.0 mi Calm Calm - N/A   Clear
3:15 AM 35.2 °F - 31.3 °F 85% 30.01 in 10.0 mi Calm Calm - N/A   Clear
3:35 AM 35.1 °F - 31.3 °F 86% 30.01 in 10.0 mi Calm Calm - N/A   Clear
3:55 AM 37.0 °F - 32.7 °F 84% 30.01 in 10.0 mi Calm Calm - N/A   Clear
4:15 AM 35.1 °F - 30.9 °F 85% 30.00 in 10.0 mi Calm Calm - N/A   Clear
4:35 AM 35.1 °F - 31.1 °F 85% 30.01 in 10.0 mi Calm Calm - N/A   Clear
4:55 AM 35.1 °F - 31.1 °F 85% 30.01 in 10.0 mi Calm Calm - N/A   Clear
5:15 AM 35.1 °F - 31.1 °F 85% 30.02 in 10.0 mi Calm Calm - N/A   Clear
5:35 AM 35.1 °F - 31.1 °F 85% 30.03 in 10.0 mi Calm Calm - N/A   Clear
5:55 AM 35.1 °F - 31.1 °F 85% 30.04 in 10.0 mi Calm Calm - N/A   Clear
6:15 AM 36.9 °F 31.4 °F 32.9 °F 86% 30.04 in 10.0 mi NW 6.9 mph - N/A   Scattered Clouds
6:35 AM 42.8 °F 40.1 °F 33.8 °F 70% 30.05 in 10.0 mi NW 4.6 mph - N/A   Scattered Clouds
6:55 AM 42.8 °F 39.3 °F 33.8 °F 70% 30.06 in 10.0 mi NW 5.8 mph - N/A   Scattered Clouds
7:15 AM 43.9 °F 39.9 °F 34.2 °F 69% 30.07 in 10.0 mi NNW 6.9 mph - N/A   Clear
7:35 AM 43.9 °F 38.8 °F 34.0 °F 68% 30.08 in 10.0 mi NNW 9.2 mph - N/A   Clear
7:55 AM 43.9 °F 37.5 °F 34.7 °F 70% 30.09 in 10.0 mi NW 12.7 mph 17.3 mph N/A   Mostly Cloudy
8:15 AM 42.8 °F 36.2 °F 34.0 °F 71% 30.10 in 10.0 mi NNW 12.7 mph 21.9 mph N/A   Mostly Cloudy
8:35 AM 42.8 °F 38.6 °F 33.8 °F 70% 30.11 in 10.0 mi NNW 6.9 mph - N/A   Mostly Cloudy
8:55 AM 42.8 °F 40.1 °F 34.2 °F 72% 30.11 in 10.0 mi NW 4.6 mph - N/A   Mostly Cloudy
9:15 AM 42.8 °F - 33.8 °F 70% 30.11 in 10.0 mi Calm Calm - N/A   Mostly Cloudy
9:35 AM 43.3 °F 41.7 °F 34.3 °F 71% 30.11 in 10.0 mi NW 3.5 mph - N/A   Scattered Clouds
9:55 AM 44.8 °F 43.3 °F 35.2 °F 69% 30.11 in 10.0 mi North 3.5 mph - N/A   Scattered Clouds
10:15 AM 45.7 °F 41.5 °F 33.6 °F 63% 30.10 in 10.0 mi NNW 8.1 mph - N/A   Clear
10:35 AM 45.1 °F 40.8 °F 32.9 °F 62% 30.10 in 10.0 mi NW 8.1 mph - N/A   Scattered Clouds
10:55 AM 45.1 °F 39.1 °F 28.9 °F 53% 30.10 in 10.0 mi NNW 12.7 mph - N/A   Scattered Clouds
11:15 AM 47.7 °F - 29.8 °F 50% 30.09 in 10.0 mi NNW 12.7 mph 17.3 mph N/A   Scattered Clouds
11:35 AM 49.6 °F - 29.7 °F 46% 30.07 in 10.0 mi NNW 10.4 mph - N/A   Scattered Clouds
11:55 AM 48.9 °F - 28.4 °F 45% 30.05 in 10.0 mi NW 10.4 mph 17.3 mph N/A   Clear
12:15 PM 50.2 °F - 28.9 °F 44% 30.05 in 10.0 mi NW 9.2 mph - N/A   Scattered Clouds
12:35 PM 50.2 °F - 19.2 °F 29% 30.04 in 10.0 mi WNW 10.4 mph 16.1 mph N/A   Scattered Clouds
12:55 PM 50.2 °F - 11.8 °F 22% 30.04 in 10.0 mi NW 10.4 mph 17.3 mph N/A   Clear
1:15 PM 50.2 °F - 7.0 °F 17% 30.03 in 10.0 mi NNW 10.4 mph 17.3 mph N/A   Clear
1:35 PM 50.2 °F - 4.6 °F 16% 30.02 in 10.0 mi NW 11.5 mph 16.1 mph N/A   Clear
1:55 PM 50.2 °F - 6.4 °F 17% 30.02 in 10.0 mi NW 8.1 mph 17.3 mph N/A   Clear
2:15 PM 52.7 °F - 3.4 °F 14% 30.02 in 10.0 mi WNW 13.8 mph 21.9 mph N/A   Clear
2:35 PM 50.9 °F - -0.0 °F 12% 30.02 in 10.0 mi NNW 8.1 mph - N/A   Clear
2:55 PM 50.7 °F - -0.6 °F 12% 30.02 in 10.0 mi NW 10.4 mph 24.2 mph N/A   Clear
3:15 PM 50.2 °F - -0.2 °F 13% 30.02 in 10.0 mi NW 10.4 mph 16.1 mph N/A   Clear
3:35 PM 50.2 °F - 0.1 °F 13% 30.02 in 10.0 mi NW 12.7 mph 18.4 mph N/A   Clear
3:55 PM 50.2 °F - 1.9 °F 14% 30.02 in 10.0 mi WNW 8.1 mph - N/A   Clear
4:15 PM 50.2 °F - 0.9 °F 13% 30.03 in 10.0 mi West 12.7 mph 19.6 mph N/A   Clear
4:35 PM 50.2 °F - 2.8 °F 14% 30.04 in 10.0 mi West 11.5 mph 18.4 mph N/A   Clear
4:55 PM 47.7 °F - 3.7 °F 17% 30.04 in 10.0 mi West 8.1 mph - N/A   Clear
5:15 PM 45.7 °F 42.7 °F 5.2 °F 19% 30.05 in 10.0 mi WNW 5.8 mph - N/A   Clear
5:35 PM 45.1 °F 40.8 °F 6.3 °F 20% 30.05 in 10.0 mi WNW 8.1 mph - N/A   Scattered Clouds
5:55 PM 43.9 °F 39.3 °F 6.6 °F 22% 30.06 in 10.0 mi WNW 8.1 mph - N/A   Clear
6:15 PM 43.3 °F 38.6 °F 7.2 °F 23% 30.07 in 10.0 mi WNW 8.1 mph - N/A   Clear
6:35 PM 43.0 °F 37.7 °F 7.0 °F 23% 30.08 in 10.0 mi WNW 9.2 mph 16.1 mph N/A   Clear
6:55 PM 42.6 °F 37.8 °F 8.4 °F 25% 30.09 in 10.0 mi NW 8.1 mph - N/A   Clear
7:15 PM 41.4 °F 36.2 °F 8.6 °F 26% 30.09 in 10.0 mi NNW 8.1 mph - N/A   Clear
7:35 PM 40.3 °F 34.9 °F 8.6 °F 27% 30.09 in 10.0 mi NNW 8.1 mph - N/A   Clear
7:55 PM 40.1 °F 36.1 °F 10.4 °F 30% 30.10 in 10.0 mi NNW 5.8 mph - N/A   Scattered Clouds
8:15 PM 38.7 °F 34.3 °F 11.3 °F 33% 30.10 in 10.0 mi NNW 5.8 mph - N/A   Scattered Clouds
8:35 PM 37.9 °F 33.5 °F 10.6 °F 32% 30.10 in 10.0 mi NNW 5.8 mph - N/A   Clear
8:55 PM 37.6 °F 34.0 °F 9.7 °F 32% 30.11 in 10.0 mi NW 4.6 mph - N/A   Clear
9:15 PM 37.6 °F - 11.3 °F 34% 30.11 in 10.0 mi Calm Calm - N/A   Clear
9:35 PM 35.1 °F 32.2 °F 13.3 °F 41% 30.12 in 10.0 mi NW 3.5 mph - N/A   Clear
9:55 PM 35.6 °F 31.7 °F 11.1 °F 36% 30.12 in 10.0 mi WNW 4.6 mph - N/A   Clear
10:15 PM 35.1 °F 31.0 °F 10.9 °F 37% 30.12 in 10.0 mi WNW 4.6 mph - N/A   Clear
10:35 PM 35.1 °F 29.3 °F 11.8 °F 38% 30.12 in 10.0 mi NW 6.9 mph - N/A   Clear
10:55 PM 35.1 °F 30.1 °F 11.5 °F 38% 30.12 in 10.0 mi NW 5.8 mph - N/A   Clear
11:15 PM 35.1 °F 31.0 °F 12.9 °F 40% 30.11 in 10.0 mi WNW 4.6 mph - N/A   Clear
11:35 PM 35.1 °F 31.0 °F 13.3 °F 41% 30.11 in 10.0 mi WNW 4.6 mph - N/A   Clear
11:55 PM 35.1 °F 30.1 °F 13.5 °F 41% 30.11 in 10.0 mi NW 5.8 mph - N/A   Clear